• In Belarus
  • List of Countries
  • For 7 days
  • Water Temperature
  • Satellite Maps
  • Weather Map
  • Weather Widgets
  • user-avatar
    Login

    Hourly Weather Borovec

    Today, 24 November, Friday

    Time Temperature Precipitation Wind Pressure Humidity
    00:00 +7°C° 0 mm 1 mps 713 mmHg 72%
    01:00 +6°C° 0 mm 1 mps 713 mmHg 71%
    02:00 +6°C° 0 mm 1 mps 713 mmHg 71%
    03:00 +6°C° 0 mm 1 mps 713 mmHg 70%
    04:00 +6°C° 0 mm 1 mps 713 mmHg 70%
    05:00 +6°C° 0 mm 1 mps 713 mmHg 69%
    06:00 +6°C° 0 mm 1 mps 713 mmHg 69%
    07:00 +6°C° 0 mm 1 mps 713 mmHg 68%
    08:00 +5°C° 0 mm 1 mps 713 mmHg 68%
    09:00 +8°C° 0 mm 1 mps 713 mmHg 62%
    10:00 +9°C° 0 mm 0 mps 713 mmHg 56%
    11:00 +11°C° 0 mm 0 mps 714 mmHg 50%
    12:00 +12°C° 0 mm 0 mps 713 mmHg 48%
    13:00 +12°C° 0 mm 0 mps 713 mmHg 47%
    14:00 +13°C° 0 mm 0 mps 713 mmHg 45%
    15:00 +11°C° 0 mm 0 mps 713 mmHg 52%
    16:00 +10°C° 0 mm 0 mps 713 mmHg 58%
    17:00 +8°C° 0 mm 0 mps 713 mmHg 64%
    18:00 +7°C° 0 mm 0 mps 713 mmHg 67%
    19:00 +7°C° 0 mm 0 mps 713 mmHg 69%
    20:00 +6°C° 0 mm 0 mps 713 mmHg 71%
    21:00 +6°C° 0 mm 0 mps 713 mmHg 72%
    22:00 +7°C° 0 mm 1 mps 713 mmHg 73%
    23:00 +6°C° 0 mm 1 mps 714 mmHg 73%

    Tomorrow, 25 November, Saturday

    Time Temperature Precipitation Wind Pressure Humidity
    00:00 +6°C° 0 mm 1 mps 714 mmHg 74%
    01:00 +6°C° 0 mm 1 mps 714 mmHg 74%
    02:00 +6°C° 0 mm 1 mps 714 mmHg 75%
    03:00 +5°C° 0 mm 1 mps 713 mmHg 75%
    04:00 +5°C° 0 mm 1 mps 713 mmHg 75%
    05:00 +5°C° 0 mm 1 mps 713 mmHg 75%
    06:00 +5°C° 0 mm 1 mps 713 mmHg 75%
    07:00 +5°C° 0 mm 1 mps 713 mmHg 75%
    08:00 +5°C° 0 mm 1 mps 713 mmHg 75%
    09:00 +7°C° 0 mm 1 mps 713 mmHg 69%
    10:00 +9°C° 0 mm 1 mps 713 mmHg 62%
    11:00 +11°C° 0 mm 1 mps 713 mmHg 56%
    12:00 +12°C° 0 mm 1 mps 713 mmHg 54%
    13:00 +12°C° 0 mm 1 mps 712 mmHg 52%
    14:00 +13°C° 0 mm 2 mps 712 mmHg 50%
    15:00 +12°C° 0 mm 2 mps 711 mmHg 57%
    16:00 +10°C° 0 mm 1 mps 711 mmHg 64%
    17:00 +9°C° 0 mm 1 mps 711 mmHg 72%
    18:00 +8°C° 0 mm 1 mps 711 mmHg 75%
    19:00 +6°C° 0 mm 2 mps 711 mmHg 78%
    20:00 +6°C° 0 mm 2 mps 711 mmHg 82%
    21:00 +5°C° 0 mm 2 mps 711 mmHg 83%
    22:00 +5°C° 0 mm 2 mps 711 mmHg 84%
    23:00 +6°C° 0 mm 1 mps 711 mmHg 86%

    Day after tomorrow, 26 November, Sunday

    Time Temperature Precipitation Wind Pressure Humidity
    00:00 +6°C° 0 mm 1 mps 711 mmHg 86%
    01:00 +5°C° 0 mm 1 mps 710 mmHg 87%
    02:00 +5°C° 0 mm 1 mps 710 mmHg 87%
    03:00 +5°C° 0 mm 1 mps 710 mmHg 87%
    04:00 +5°C° 0 mm 1 mps 710 mmHg 88%
    05:00 +5°C° 0 mm 1 mps 710 mmHg 88%
    06:00 +5°C° 0 mm 1 mps 710 mmHg 87%
    07:00 +5°C° 0 mm 1 mps 710 mmHg 86%
    08:00 +5°C° 0 mm 1 mps 710 mmHg 86%
    09:00 +7°C° 0 mm 1 mps 710 mmHg 78%
    10:00 +8°C° 0 mm 2 mps 710 mmHg 71%
    11:00 +10°C° 0 mm 2 mps 710 mmHg 63%
    12:00 +12°C° 0 mm 2 mps 709 mmHg 61%
    13:00 +13°C° 0 mm 2 mps 709 mmHg 58%
    14:00 +13°C° 0 mm 2 mps 708 mmHg 55%
    15:00 +12°C° 0.1 mm 1 mps 708 mmHg 61%
    16:00 +11°C° 0.1 mm 1 mps 708 mmHg 67%
    17:00 +10°C° 0.1 mm 1 mps 707 mmHg 74%
    18:00 +9°C° 0.1 mm 1 mps 707 mmHg 76%
    19:00 +9°C° 0.1 mm 1 mps 707 mmHg 79%
    20:00 +9°C° 0.1 mm 1 mps 707 mmHg 82%
    21:00 +8°C° 0.1 mm 1 mps 707 mmHg 82%
    22:00 +8°C° 0.1 mm 1 mps 707 mmHg 82%
    23:00 +8°C° 0.1 mm 1 mps 707 mmHg 82%

    27 November, Monday

    Time Temperature Precipitation Wind Pressure Humidity
    00:00 +8°C° 0.3 mm 1 mps 707 mmHg 84%
    01:00 +8°C° 0.3 mm 1 mps 706 mmHg 85%
    02:00 +7°C° 0.3 mm 1 mps 706 mmHg 86%
    03:00 +6°C° 0.5 mm 0 mps 706 mmHg 87%
    04:00 +6°C° 0.5 mm 0 mps 706 mmHg 88%
    05:00 +6°C° 0.5 mm 0 mps 706 mmHg 89%
    06:00 +7°C° 1.1 mm 1 mps 706 mmHg 90%
    07:00 +7°C° 1.1 mm 1 mps 706 mmHg 92%
    08:00 +7°C° 1.1 mm 1 mps 706 mmHg 93%
    09:00 +6°C° 1.5 mm 2 mps 706 mmHg 92%
    10:00 +6°C° 1.5 mm 2 mps 706 mmHg 92%
    11:00 +5°C° 1.5 mm 3 mps 707 mmHg 91%
    12:00 +4°C° 1.2 mm 3 mps 706 mmHg 90%
    13:00 +4°C° 1.2 mm 3 mps 706 mmHg 89%
    14:00 +4°C° 1.2 mm 4 mps 706 mmHg 88%
    15:00 +3°C° 0.8 mm 4 mps 706 mmHg 88%
    16:00 +1°C° 0.8 mm 4 mps 706 mmHg 87%
    17:00 +1°C° 0.8 mm 4 mps 706 mmHg 87%
    18:00 0°C° 0.7 mm 4 mps 707 mmHg 87%
    19:00 0°C° 0.7 mm 4 mps 707 mmHg 88%
    20:00 -1°C° 0.7 mm 4 mps 707 mmHg 88%
    21:00 -1°C° 0.6 mm 4 mps 707 mmHg 89%
    22:00 0°C° 0.6 mm 3 mps 708 mmHg 89%
    23:00 0°C° 0.6 mm 3 mps 708 mmHg 89%

    28 November, Tuesday

    Time Temperature Precipitation Wind Pressure Humidity
    00:00 0°C° 0.5 mm 3 mps 708 mmHg 89%
    01:00 0°C° 0.5 mm 3 mps 708 mmHg 90%
    02:00 0°C° 0.5 mm 3 mps 708 mmHg 90%
    03:00 -1°C° 0.4 mm 3 mps 708 mmHg 90%
    04:00 -1°C° 0.4 mm 3 mps 708 mmHg 90%
    05:00 -1°C° 0.4 mm 3 mps 708 mmHg 90%
    06:00 -1°C° 0.2 mm 3 mps 708 mmHg 90%
    07:00 -1°C° 0.2 mm 2 mps 708 mmHg 89%
    08:00 -1°C° 0.2 mm 2 mps 708 mmHg 89%
    09:00 -1°C° 0.1 mm 2 mps 709 mmHg 88%
    10:00 0°C° 0.1 mm 3 mps 709 mmHg 86%
    11:00 0°C° 0.1 mm 3 mps 709 mmHg 85%
    12:00 0°C° 0.1 mm 3 mps 709 mmHg 84%
    13:00 +1°C° 0.1 mm 3 mps 709 mmHg 84%
    14:00 +1°C° 0.1 mm 3 mps 708 mmHg 83%
    15:00 +1°C° 0.1 mm 2 mps 709 mmHg 85%
    16:00 +1°C° 0.1 mm 2 mps 709 mmHg 87%
    17:00 -1°C° 0.1 mm 2 mps 709 mmHg 88%
    18:00 -1°C° 0.1 mm 2 mps 709 mmHg 89%
    19:00 -1°C° 0.1 mm 2 mps 709 mmHg 89%
    20:00 +1°C° 0.1 mm 1 mps 710 mmHg 90%
    21:00 +1°C° 0 mm 1 mps 710 mmHg 90%
    22:00 +1°C° 0 mm 1 mps 710 mmHg 90%
    23:00 0°C° 0 mm 1 mps 710 mmHg 91%

    29 November, Wednesday

    Time Temperature Precipitation Wind Pressure Humidity
    00:00 0°C° 0 mm 1 mps 710 mmHg 91%
    01:00 0°C° 0 mm 1 mps 710 mmHg 91%
    02:00 0°C° 0 mm 1 mps 710 mmHg 91%
    03:00 0°C° 0 mm 1 mps 710 mmHg 90%
    04:00 0°C° 0 mm 1 mps 710 mmHg 90%
    05:00 0°C° 0 mm 1 mps 710 mmHg 89%
    06:00 0°C° 0 mm 1 mps 710 mmHg 88%
    07:00 0°C° 0 mm 1 mps 710 mmHg 88%
    08:00 0°C° 0 mm 1 mps 710 mmHg 87%
    09:00 +1°C° 0 mm 1 mps 710 mmHg 84%
    10:00 +3°C° 0 mm 1 mps 710 mmHg 81%
    11:00 +5°C° 0 mm 1 mps 711 mmHg 78%
    12:00 +6°C° 0 mm 1 mps 710 mmHg 77%
    13:00 +7°C° 0 mm 1 mps 710 mmHg 76%
    14:00 +7°C° 0 mm 1 mps 710 mmHg 76%
    15:00 +6°C° 0 mm 1 mps 710 mmHg 78%
    16:00 +5°C° 0 mm 1 mps 710 mmHg 81%
    17:00 +4°C° 0 mm 1 mps 710 mmHg 83%
    18:00 +3°C° 0 mm 1 mps 710 mmHg 84%
    19:00 +3°C° 0 mm 1 mps 710 mmHg 84%
    20:00 +2°C° 0 mm 1 mps 710 mmHg 84%
    21:00 +2°C° 0 mm 1 mps 710 mmHg 83%
    22:00 +2°C° 0 mm 1 mps 710 mmHg 82%
    23:00 +1°C° 0 mm 1 mps 710 mmHg 82%
    Show more